557  
ASUS44 KLIX 221813  
RWRLIX  
NEW ORLEANS REGIONAL WEATHER ROUNDUP  
NATIONAL WEATHER SERVICE NEW ORLEANS LA  
100 PM CDT SAT JUL 22 2017  
 
NOTE: "FAIR" INDICATES FEW OR NO CLOUDS BELOW 12,000 FEET WITH NO  
SIGNIFICANT WEATHER AND/OR S TO VISIBILITY
.  
SKY/WX - SKY CONDITION AND SIGNIFICANT WEATHER.  
TMP - AIR TEMPERATURE. DP - DEWPOINT TEMPERATURE.  
RH - RELATIVE HUMIDITY. PRES - PRESSURE.  
HI - HEAT INDEX. WCI - WIND CHILL INDEX.  
 
* THESE STATIONS ARE NOT NWS OR FAA STATIONS AND ARE NOT UNDER  
NWS QUALITY CONTROL.  
 
LAZ038-040-048-061>063-065>067-069-221900-  
SOUTHEAST LOUISIANA  
 
CITY SKY/WX TMP DP RH WIND PRES REMARKS
 
N.O. INTL ARPT PTSUNNY 88 75 65 NE12 30.00F THUNDER HX 97  
6HR MIN TEMP: 78; 6HR MAX TEMP: 91;  
 
N.O. LAKEFRONT MOSUNNY 90 74 59 NE8 30.00F HX 99  
6HR MIN TEMP: 79; 6HR MAX TEMP: 90;  
 
N.O. DOWNTOWN* N/A 91 74 57 VRB6 N/A HX 100  
6HR MIN TEMP: 79; 6HR MAX TEMP: 92; 6HR PCP: TRACE;  
 
RESERVE* CLOUDY 82 71 68 NW23G32 30.04R THUNDER  
6HR MIN TEMP: 79; 6HR MAX TEMP: 92;  
 
SLIDELL SUNNY 89 70 53 S5 30.00F  
6HR MIN TEMP: 74; 6HR MAX TEMP: 90; 6HR PCP: 0.03;  
 
BATON ROUGE PTSUNNY 83 76 79 E5 29.99F  
6HR MIN TEMP: 75; 6HR MAX TEMP: 89; 6HR PCP: 0.04;  
 
BOOTHVILLE NOT AVBL  
BELLE CHASSE PTSUNNY 90 78 68 E3 30.00F HX 104  
BOGALUSA* CLOUDY 82 71 70 CALM 30.02F  
6HR MIN TEMP: 73; 6HR MAX TEMP: 90;  
 
GALLIANO* MOCLDY 88 73 60 S7 30.01F HX 96  
6HR MIN TEMP: 75; 6HR MAX TEMP: 90;  
 
NEW ROADS* CLOUDY 89 75 64 CALM 29.99F HX 99  
6HR MIN TEMP: 74; 6HR MAX TEMP: 89;  
 
GONZALES* TSTM 76 72 88 CALM 30.00F  
6HR MIN TEMP: 74; 6HR MAX TEMP: 88;  
 
HAMMOND* CLOUDY 82 72 69 SW9 30.00F  
HOUMA* PTSUNNY 86 75 70 W12 30.01F THUNDER HX 95  
PORT FOURCHON* CLEAR 86 75 70 S9 30.02S HX 95  
 

 
 
MSZ070-080>082-221900-  
SOUTHERN MISSISSIPPI  
 
CITY SKY/WX TMP DP RH WIND PRES REMARKS
 
MCCOMB MOSUNNY 90 70 51 VRB3 30.00F HX 95  
6HR MIN TEMP: 73; 6HR MAX TEMP: 90;  
 
GULFPORT CLOUDY 85 74 69 W6 30.01F THUNDER  
6HR MIN TEMP: 79; 6HR MAX TEMP: 90; 6HR PCP: 0.01;  
 
BILOXI CLOUDY 89 77 68 S5 30.01F THUNDER HX 102  
6HR MIN TEMP: 78; 6HR MAX TEMP: 90;  
 
PASCAGOULA TSTM 77 74 90 NE10 30.02R FOG  
6HR MIN TEMP: 75; 6HR MAX TEMP: 92; 6HR PCP: 0.32;  
 
STENNIS ARPT* PTSUNNY 82 72 69 E9G18 30.01F THUNDER  
 

 
 
COASTAL OBSERVATIONS  
LAKE AND NEARSHORE STATIONS  
 
STATION/POSITION TIME TEMP WIND PRES WAVE
 
AIR SEA DIR/SP/G HT/PER  
(UTC) (F) (DEG/KT/KT) (MB) (FT/S)  
PASCAGOULA 1748 88 200/ 8/ 12 1015.9  
WAVELAND YACHT 1748 80 88 40/ 13/ 18 1016.6  
GRAND ISLE 1748 86 88 150/ 5/ 8 1016.8  
SOUTHWEST PASS 1748 85 180/ 6/ 8 N/A  
NEW CANAL 1748 85 88 40/ 8/ 9 1015.8  
SHELL BEACH 1748 85 91 30/ 6/ 7 1016.3  
 
OFFSHORE STATIONS  
 
STATION/POSITION TIME TEMP WIND PRES WAVE
 
AIR SEA DIR/SP/G HT/PER  
(UTC) (F) (DEG/KT/KT) (MB) (FT/S)  
64 S DAUPHIN ISL 1750 82 86 160/ 8/ 10 1017.0 1/ 3  
 

 
 
 
 
CLICK HERE TO GO TO PREVIOUS BULLETINS.

The Nexlab LA Page
The Nexlab MS Page Main Text Page